Location: ????????
(55.3939°N, 37.4780°E)
Time: 18:55:45
(UTC+00:00)

CZ-2C R/B - Pass Details

Date: 14 April 2026
Orbit: 781 x 868 km, 98.4° (Epoch: 19 May)

Event Time Altitude Azimuth Distance (km) Brightness Sun altitude
Exits shadow 21:03:25 47° 116° (ESE) 1,125 3.1 -24.7°
Maximum altitude 21:04:41 59° 67° (ENE) 983 3.0 -24.7°
Drops below altitude 10° 21:10:05 10° 349° (N) 2,473 6.2 -24.8°
Sets 21:12:28 0° 346° (NNW) 3,399 7.2 -24.8°
